Location: Harmony
(28.2000°N, 81.1500°W)
Time: 18:32:22
(UTC-04:00)

Meteor 1-28 Rocket - Pass Details

Date: 18 December 2017
Orbit: 505 x 524 km, 97.2° (Epoch: 22 July)

Event Time Altitude Azimuth Distance (km) Brightness Sun altitude
Rises 17:55:00 0° 7° (N) 2,631 6.5 -5.4°
Reaches altitude 10° 17:57:07 10° 5° (N) 1,745 5.6 -5.8°
Maximum altitude 18:00:51 67° 283° (WNW) 564 3.6 -6.6°
Drops below altitude 10° 18:04:35 10° 200° (SSW) 1,746 6.5 -7.4°
Sets 18:06:41 0° 197° (SSW) 2,633 7.4 -7.8°
